Regional Weather Roundup
Issued by NWS

Home | Current Version | Previous Version | Text Only | Print | Product List | Glossary Off
Versions: 1 2 3 4 5 6 7 8 9 10 11 12 13 14 15 16 17 18 19 20 21 22 23 24 25 26 27 28 29 30 31 32 33 34 35 36 37 38 39 40 41 42 43 44 45 46 47 48 49 50

354
ASUS43 KDMX 220901
RWRIA

WEATHER ROUNDUP FOR IOWA
NATIONAL WEATHER SERVICE DES MOINES IA
400 AM CDT FRI SEP 22 2017

NOTE: "FAIR" INDICATES FEW OR NO CLOUDS BELOW 12,000 FEET WITH NO
SIGNIFICANT WEATHER AND/OR OBSTRUCTIONS TO VISIBILITY.

* - THESE STATIONS ARE NOT NWS STATIONS...THUS NOT UNDER NWS
QUALITY CONTROL.  THEY ALSO DO NOT REPORT WEATHER SUCH
AS PRECIPITATION OR FOG.

IAZ001>003-012>014-020>022-031>034-043>046-221000-
   NORTHWEST IOWA

CITY           SKY/WX    TMP DP  RH WIND       PRES   REMARKS
CARROLL *      CLEAR     79  72  78 S13G23    29.85S HX  82
CHEROKEE *     CLOUDY    76  73  90 S14       29.80F
DENISON *      CLEAR     77  72  83 S18G28    29.85R
LE MARS *      PTCLDY    77  73  88 S18G25    29.76S
ORANGE CITY *  CLEAR     77  75  94 S13       29.78S
SHELDON *      PTCLDY    75  72  88 S12G20    29.76F
SIOUX CITY     CLEAR     78  73  84 S9        29.77S HX  81
SPENCER        PTCLDY    75  71  87 S14       29.81S
STORM LAKE *   CLEAR     75  72  88 S13       29.83S
$$

IAZ055>058-069>071-079>083-090>094-221000-
   SOUTHWEST IOWA

CITY           SKY/WX    TMP DP  RH WIND       PRES   REMARKS
ATLANTIC *     CLEAR     77  72  83 S13       29.86S
AUDUBON *      PTCLDY    75  72  88 S9G16     29.88S
CLARINDA *     CLEAR     77  72  83 S8        29.90S
COUNCIL BLFS * CLEAR     75  75 100 S14       29.84S
CRESTON *      CLEAR     75  70  83 S14       29.92S
HARLAN  *      CLEAR     77  73  88 S15G22    29.88S
LAMONI         CLEAR     76  70  82 S9        29.93S
RED OAK *      MOCLDY    79  72  78 S15G23    29.87S HX  82
SHENANDOAH *   CLEAR     79  72  78 S12G18    29.87R HX  82
$$

IAZ047>049-059>061-072>074-084-221000-
   CENTRAL IOWA

CITY           SKY/WX    TMP DP  RH WIND       PRES   REMARKS
AMES           CLEAR     72  70  93 SE7       29.89S
ANKENY *       CLEAR     75  70  83 S5        29.90S
BOONE *        CLEAR     77  70  78 S7G13     29.88S
CHARITON *     CLEAR     73  68  83 S9        29.93R
DES MOINES     PTCLDY    78  70  76 S9        29.89S HX  80
GRINNELL*      CLEAR     73  69  86 S8        29.95R
KNOXVILLE *    MOCLDY    75  68  78 S8        29.91S
MARSHALLTOWN   CLEAR     74  70  87 S10       29.91S
NEWTON *       CLEAR     73  68  83 SE8       29.93R
PELLA *        PTCLDY    74  67  78 SE6       29.94R
PERRY *          N/A     77  73  85 S9        29.88R
$$

IAZ004>006-015-016-023>025-035-036-221000-
   NORTH CENTRAL IOWA

CITY           SKY/WX    TMP DP  RH WIND       PRES   REMARKS
ALGONA *       PTCLDY    77  72  83 S14       29.85S
CLARION *      CLEAR     75  72  88 S10       29.88R
ESTHERVILLE    CLEAR     72  71  97 S14       29.81F
FORT DODGE *   CLEAR     78  71  79 S12G21    29.87R HX  80
MASON CITY     CLEAR     71  68  90 S10       29.90S
FOREST CITY *    N/A     73  70  88 S9        29.87S
WEBSTER CITY * CLEAR     73  70  88 S8        29.86S
IOWA FALLS *     N/A     73  69  87 SE7       29.91S
$$

IAZ007>011-017>019-026>030-037>042-050>054-066-221000-
   NORTHEAST IOWA

CITY           SKY/WX    TMP DP  RH WIND       PRES   REMARKS
CEDAR RAPIDS   CLEAR     74  69  85 S8        29.97R
CHARLES CITY * CLEAR     75  72  88 S10G16    29.92S
CLINTON *      CLEAR    N/A N/A N/A S5        30.01R
DECORAH *      CLEAR     75  70  83 S12       29.93S
DUBUQUE        CLEAR     71  68  90 SW9       30.00R
MONTICELLO *   CLEAR     70  68  94 S6        29.98R
OELWEIN *      CLEAR     75  72  88 S12G17    29.96R
WATERLOO       CLEAR     72  69  90 SE10      29.91S
$$

IAZ064-065-067-068-078-221000-
   EAST CENTRAL IOWA

CITY           SKY/WX    TMP DP  RH WIND       PRES   REMARKS
DAVENPORT      CLEAR     74  68  81 S8        30.02R
IOWA CITY      PTCLDY    73  68  84 CALM      29.98R
MUSCATINE *    CLEAR     68  66  94 CALM      29.99R
QUAD CITIES    CLEAR     75  67  76 S5        29.99S
$$

IAZ062-063-075>077-085>089-095>099-221000-
   SOUTHEAST IOWA

CITY           SKY/WX    TMP DP  RH WIND       PRES   REMARKS
BURLINGTON     CLEAR     74  69  85 S6        29.99S
FAIRFIELD *    PTCLDY    73  68  83 S8        29.97R
FORT MADISON * CLEAR     73  70  88 S5        30.00S
KEOKUK *       CLEAR     79  68  69 S10G17    29.99R HX  81
OSKALOOSA *      N/A     73  68  86 S7        29.96S
OTTUMWA        PTCLDY    75  69  81 S8        29.95S
WASHINGTON *   CLEAR     73  70  88 S7        29.99R
$$

ABBREVIATIONS USED IN REMARKS
   TC - TEMPERATURES IN CELSIUS
  WCI - WIND CHILL INDEX
   HX - HEAT INDEX
  VSB - VISIBILITY
$$





USA.gov is the U.S. government's official web portal to all federal, state and local government web resources and services.